DW5950 Weather Reports


Display with metric or nautical units.
time (UTC)temp
F
wind
direction
speed
MPH
gust
MPH
rain 1hr
in
rain 24hr
in
rain mn
in
humidity
%
barometer
mb
20190626093059 87 295 4.0 10.0 0.00 0.00 0.00 66 1009.0
20190626091601 87 288 4.0 9.0 0.00 0.00 0.00 66 1009.1
20190626090109 86 283 4.0 9.0 0.00 0.00 0.00 66 1009.2
20190626084544 86 295 4.0 10.0 0.00 0.00 0.00 67 1009.2
20190626083112 87 297 4.0 9.0 0.00 0.00 0.00 66 1009.2
20190626081542 87 309 5.0 10.0 0.00 0.00 0.00 66 1009.1
20190626080053 88 285 6.0 11.0 0.00 0.00 0.00 62 1009.0
20190626074555 88 342 4.0 9.0 0.00 0.00 0.00 60 1009.0
20190626073233 88 40 1.0 9.0 0.00 0.00 0.00 59 1009.1
20190626071532 88 264 1.0 5.0 0.00 0.00 0.00 55 1009.0
20190626064601 89 108 0.0 4.0 0.00 0.00 0.00 51 1009.0
20190626063048 88 34 2.0 6.0 0.00 0.00 0.00 52 1009.0
20190626061555 86 52 1.0 5.0 0.00 0.00 0.00 54 1009.0
20190626060020 86 330 0.0 4.0 0.00 0.00 0.00 54 1009.1
20190626054511 85 11 2.0 4.0 0.00 0.00 0.00 55 1009.1
20190626053008 85 26 1.0 3.0 0.00 0.00 0.00 52 1009.1
20190626051511 84 321 1.0 4.0 0.00 0.00 0.00 50 1009.1
20190626050018 86 98 0.0 1.0 0.00 0.00 0.00 45 1009.0
20190626044634 83 98 0.0 1.0 0.00 0.00 0.00 48 1008.9
20190626043155 81 99 0.0 1.0 0.00 0.00 0.00 50 1009.0
20190626041651 79 98 1.0 2.0 0.00 0.00 0.00 51 1009.1
20190626040112 77 99 2.0 3.0 0.00 0.00 0.00 53 1008.9
20190626034618 75 98 1.0 3.0 0.00 0.00 0.00 55 1008.8
20190626033056 75 101 3.0 4.0 0.00 0.00 0.00 54 1008.7
20190626031604 75 91 1.0 2.0 0.00 0.00 0.00 53 1008.6
20190626024703 74 91 1.0 2.0 0.00 0.00 0.00 57 1008.5
20190626023204 74 105 2.0 3.0 0.00 0.00 0.00 58 1008.5
20190626021636 74 99 2.0 4.0 0.00 0.00 0.00 57 1008.3
20190626020128 75 136 0.0 1.0 0.00 0.00 0.00 56 1008.3
20190626014642 75 136 0.0 1.0 0.00 0.00 0.00 55 1008.2
20190626013205 75 136 1.0 3.0 0.00 0.00 0.00 55 1008.3
20190626011826 75 155 1.0 3.0 0.00 0.00 0.00 55 1008.4
20190626010121 76 166 1.0 3.0 0.00 0.00 0.00 57 1008.4
20190626004636 75 149 2.0 4.0 0.00 0.00 0.00 59 1008.5
20190626003147 74 117 2.0 3.0 0.00 0.00 0.00 60 1008.3
20190626001609 74 117 1.0 2.0 0.00 0.00 0.00 61 1008.3
20190626000203 74 117 1.0 2.0 0.00 0.00 0.00 62 1008.3
20190625234557 74 117 0.0 1.0 0.00 0.00 0.00 63 1008.1
20190625233101 74 117 0.0 1.0 0.00 0.00 0.00 64 1008.2
20190625231554 75 117 1.0 2.0 0.00 0.00 0.00 62 1008.3
20190625230145 75 117 1.0 2.0 0.00 0.00 0.00 62 1008.3
20190625224630 75 117 1.0 3.0 0.00 0.00 0.00 62 1008.4
20190625223103 75 117 1.0 2.0 0.00 0.00 0.00 64 1008.6
20190625221616 76 117 0.0 1.0 0.00 0.00 0.00 63 1008.6
20190625220046 75 117 0.0 2.0 0.00 0.00 0.00 65 1008.6
20190625214600 75 117 1.0 2.0 0.00 0.00 0.00 69 1008.6
20190625213033 75 117 1.0 2.0 0.00 0.00 0.00 72 1008.7
20190625211524 75 117 2.0 4.0 0.00 0.00 0.00 71 1008.7
20190625210019 75 347 1.0 1.0 0.00 0.00 0.00 77 1008.8
20190625204519 76 347 0.0 1.0 0.00 0.00 0.00 75 1008.8
20190625203110 77 347 0.0 1.0 0.00 0.00 0.00 75 1008.8
20190625201533 78 356 0.0 3.0 0.00 0.00 0.00 74 1008.6
20190625200015 78 355 2.0 4.0 0.00 0.00 0.00 76 1008.8
20190625194514 77 317 0.0 3.0 0.00 0.00 0.00 66 1008.8
20190625193024 78 101 0.0 1.0 0.00 0.00 0.00 67 1008.9
20190625191509 78 101 0.0 0.0 0.00 0.00 0.00 66 1008.9
20190625190021 80 100 0.0 1.0 0.00 0.00 0.00 64 1008.9
20190625184508 80 100 0.0 2.0 0.00 0.00 0.00 63 1008.9
20190625183036 81 109 1.0 1.0 0.00 0.00 0.00 62 1008.9
20190625181520 81 110 0.0 2.0 0.00 0.00 0.00 62 1008.9
20190625180007 81 108 0.0 1.0 0.00 0.00 0.00 60 1009.0
20190625174534 82 108 0.0 1.0 0.00 0.00 0.00 58 1009.0
20190625173023 83 337 0.0 1.0 0.00 0.00 0.00 55 1008.8
20190625171504 84 337 0.0 1.0 0.00 0.00 0.00 53 1008.8
20190625170014 85 21 0.0 2.0 0.00 0.00 0.00 51 1008.6
20190625164521 86 23 0.0 2.0 0.00 0.00 0.00 49 1008.5
20190625163001 87 8 2.0 4.0 0.00 0.00 0.00 50 1008.5
20190625160209 89 349 1.0 4.0 0.00 0.00 0.00 48 1008.4
20190625154750 90 20 2.0 4.0 0.00 0.00 0.00 47 1008.3
20190625153151 90 5 0.0 4.0 0.00 0.00 0.00 48 1008.3
20190625151625 90 348 2.0 5.0 0.00 0.00 0.00 47 1008.3
20190625150115 90 26 0.0 6.0 0.00 0.00 0.00 48 1008.3
20190625144521 90 9 1.0 3.0 0.00 0.00 0.00 49 1008.3
20190625141509 89 295 3.0 7.0 0.00 0.00 0.00 52 1008.3
20190625140015 90 287 3.0 7.0 0.00 0.00 0.00 52 1008.3
20190625134508 91 321 3.0 6.0 0.00 0.00 0.00 51 1008.2
20190625133002 91 314 3.0 9.0 0.00 0.00 0.00 50 1008.2
20190625131806 91 4 4.0 8.0 0.00 0.00 0.00 48 1008.2
20190625130151 90 274 4.0 11.0 0.00 0.00 0.00 53 1008.2
20190625124739 90 293 5.0 10.0 0.00 0.00 0.00 56 1008.1
20190625123249 91 296 3.0 8.0 0.00 0.00 0.00 54 1008.1
20190625121646 92 278 3.0 7.0 0.00 0.00 0.00 52 1008.3
20190625114627 93 37 3.0 6.0 0.00 0.00 0.00 42 1008.2
20190625113144 91 13 3.0 9.0 0.00 0.00 0.00 51 1008.4
20190625111612 91 292 3.0 12.0 0.00 0.00 0.00 52 1008.5
20190625110116 92 298 2.0 8.0 0.00 0.00 0.00 50 1008.5
20190625104608 92 311 4.0 8.0 0.00 0.00 0.00 49 1008.6
20190625103037 91 295 5.0 9.0 0.00 0.00 0.00 49 1008.6
20190625101512 92 307 4.0 10.0 0.00 0.00 0.00 46 1008.6
20190625100010 92 318 5.0 10.0 0.00 0.00 0.00 46 1008.7
20190625094511 92 318 5.0 10.0 0.00 0.00 0.00 45 1008.6